星链-37657(STARLINK-37657)

导读

STARLINK-37657(NORAD编号69145)是SpaceX星链(Starlink)卫星互联网星座的一员,隶属于美国太空探索技术公司SpaceX开发的低轨卫星通信网络。星链项目旨在通过部署数千颗低地球轨道卫星,为全球提供低成本、高速的天基互联网接入服务。该卫星运行在近地轨道,是星链星座组网的组成部分,用于补充和扩展星座的全球覆盖能力,为地面用户提供宽带互联网通信服务,助力实现全球尤其是偏远地区的网络覆盖。作为星链计划批量部署的卫星之一,它依托猎鹰9号火箭发射入轨,延续了SpaceX可重复使用火箭降低发射成本的设计思路。

基本信息
目录编号:
69145
目录名称:
STARLINK-37657
国际标识:
2026-110X
轨道中心:
EARTH
卫星名称:
星链-37657
卫星全名:
星链-37657(STARLINK-37657)
卫星状态:
在轨 (已飞行116 天)
发射日期:
2026-05-20 UTC
国别 :
美国 (US)
星等 :
--
该卫星已列入 空间交会检测服务 Space Conjunction Data Service (SCDS) ,当前飞行风险评估等级: 无高风险
轨道信息
数据来源 国际轨道数据 AOE轨道数据
星历时间 2026-09-13T08:26:05+0800
10小时前
查看轨道信息
2026-09-11T23:00:00+0800
1天前
查看轨道信息
半长轴 6843.654km 6843.731km
偏心率 0.0001443 0.0001442
轨道倾角 97.287° 97.285°
近地点辐角 89.857° 104.584°
升交点赤经 91.245° 89.871°
平近点角 270.284° 130.011°
近地点 464.529km 464.607km
远地点 466.505km 466.581km
周期 93.906分钟 93.907分钟
每日圈数 15.33454 15.334281
详细信息
固有亮度:
5
最大亮度:
2.5
卫星平台:
Starlink V1.0
覆盖范围:
全球
运营商:
太空探索技术公司
运营商所在国:
美国
制造商(研发单位):
太空探索技术公司
制造商所在国:
美国
使用方式:
暂无
卫星简介
Starlink 计划是 SpaceX 推出的全球卫星互联网项目,通过发射低轨道卫星,为全球尤其是偏远地区提供高速、低延迟的互联网服务。自 2019 年起,Starlink 已部署数千颗卫星,旨在缩小全球数字鸿沟,推动互联网普及。该项目还为军事、航空等行业提供通信支持,带来广泛经济效益。
2D轨道图
3D轨道图
轨道高度分析图
轨道倾角分析图
轨道综合分析图
查看轨道综合分析图
交会数据列表
事件ID 空间交会对象 最接近时刻(TCA) 交会距离 交会风险概率(CRP) 交会风险指数(CRI) 操作
CDM_260914-023006-349606-914521
2026-09-14T
02:30:24+0000
2.908 km
极远距离
1.258679E-6 低风险 0.37
CDM_260913-213404-941406-914521
2026-09-13T
21:34:23+0000
2.999 km
极远距离
7.889079E-7 极低风险 0.33
与全量物体交会距离演化趋势
与全量物体交会风险概率演化趋势